Regional Weather Roundup
Issued by NWS

Home | Current Version | Previous Version | Graphics & Text | Print | Product List | Glossary On
Versions: 1 2 3 4 5 6 7 8 9 10 11 12 13 14 15 16 17 18 19 20 21 22 23 24 25 26 27 28 29 30 31 32 33 34 35 36 37 38 39 40 41 42 43 44 45 46 47 48 49 50
000
ASUS43 KLOT 232103
RWRIL

ILLINOIS REGIONAL WEATHER ROUNDUP
NATIONAL WEATHER SERVICE CHICAGO/ROMEOVILLE IL
400 PM CDT TUE AUG 23 2016

NOTE: "FAIR" INDICATES FEW OR NO CLOUDS BELOW 12,000 FEET WITH NO
SIGNIFICANT WEATHER AND/OR OBSTRUCTIONS TO VISIBILITY.

* THESE STATIONS ARE NOT UNDER NWS QUALITY CONTROL. THEY ALSO MAY NOT
  REPORT WEATHER SUCH AS PRECIPITATION OR FOG.

ILZ001-002-007-009-015-016-024-232200-
NORTHWEST ILLINOIS

CITY           SKY/WX    TMP DP  RH WIND       PRES   REMARKS
MOLINE         MOSUNNY   80  65  59 S17G23    30.08F HX  82
STERLING*      CLOUDY    79  65  62 S8        30.11F HX  81
SAVANNA*       PTSUNNY   81  65  57 S14G20    30.09S HX  83
$$

ILZ003-004-008-010-011-017-018-232200-
NORTH CENTRAL ILLINOIS

CITY           SKY/WX    TMP DP  RH WIND       PRES   REMARKS
ROCKFORD       MOSUNNY   81  62  52 S20       30.12F HX  82
ROCHELLE*      MOSUNNY   78  64  61 S16G22    30.13S HX  80
$$

ILZ005-006-012>014-019>023-232200-
NORTHEAST ILLINOIS

CITY           SKY/WX    TMP DP  RH WIND       PRES   REMARKS
CHICAGO-OHARE  MOSUNNY   80  60  50 S16G22    30.13F HX  81
CHICAGO-MIDWAY PTSUNNY   82  59  45 S14       30.14F HX  82
AURORA         MOSUNNY   80  62  54 S14G24    30.14F HX  81
LANSING*       PTSUNNY   79  60  52 S12       30.16F HX  80
JOLIET*        MOSUNNY   81  63  55 S9G16     30.15F HX  82
WAUKEGAN       MOSUNNY   82  60  47 S13G20    30.12F HX  82
DUPAGE AIRPORT SUNNY     81  60  48 S12G23    30.13F HX  82
KANKAKEE*      MOSUNNY   79  62  55 S12       30.17F HX  81
WHEELING       SUNNY     81  59  47 S15       30.14F HX  81
MORRIS*        PTSUNNY   80  63  56 S10       30.14S HX  81
ROMEOVILLE*    MOSUNNY   79  60  52 S10       30.14F HX  80
NORTHERLY ISL    N/A     80  58  46 S14         N/A  HX  80
$$

LMZ740>746-232200-
SOUTHERN LAKE MICHIGAN

STATION/POSITION SKY/WX   TEMP    WIND        PRES    VSBY  WAVE
                          AIR SEA DIR/SP/G                  HT/PER
                          (F)     (DEG/KT/KT) (MB)    (MI)  (FT/S)
SOUTHERN BUOY              74 75  170/ 16/ 17 1020.7          3/ 5
WILMETTE HARBOR            74 72  180/ 12/ 16   N/A           2/ 3
HARRISON CRIB              77     180/ 15/ 16   N/A
BURNHAM HARBOR             80     180/  7/ 17   N/A
CALUMET HARBOR             79     180/ 10/ 13 1020.8F
BURNS HARBOR               79     190/ 11/ 21 1021.7F
MICHIGAN CITY              77     160/ 10/ 13   N/A
MICHIGAN CITY 6N           77 74  180/ 12/ 16   N/A           2/ 2
ST. JOSEPH                 76 75  180/ 10/ 14 1021.6F         1/ 3
$$

ILZ025>027-034>036-040-047-049-050-058-095>099-232200-
WEST-CENTRAL ILLINOIS

CITY           SKY/WX    TMP DP  RH WIND       PRES   REMARKS
QUINCY         CLOUDY    75  71  87 S14       30.09F
GALESBURG*     CLOUDY    78  66  66 S15G23    30.10S HX  80
MACOMB*        CLOUDY    74  68  81 S16G22    30.13S
JACKSONVILLE*  CLOUDY    73  67  80 S12G18    30.14S
PITTSFIELD*    CLOUDY    74  70  87 S9        30.13F
$$

ILZ028>032-037-038-041>044-048-051>054-059>061-232200-
CENTRAL ILLINOIS

CITY           SKY/WX    TMP DP  RH WIND       PRES   REMARKS
PONTIAC        CLOUDY    80  67  63 S12G17    30.16S HX  83
BLOOMINGTON    CLOUDY    79  66  64 S18       30.16F HX  81
DECATUR        CLOUDY    78  65  63 S14       30.16F HX  80
PEORIA         CLOUDY    79  66  64 S14G22    30.12F HX  81
LACON*         CLOUDY    79  65  61 S9        30.11F HX  81
LINCOLN*       CLOUDY    79  67  67 S10       30.15S HX  81
SPRINGFIELD    LGT RAIN  76  67  73 S14       30.15F
TAYLORVILLE    CLOUDY    73  67  82 S8        30.16F
$$

ILZ033-039-045-046-055>057-062-063-232200-
EAST-CENTRAL ILLINOIS

CITY           SKY/WX    TMP DP  RH WIND       PRES   REMARKS
CHAMPAIGN      PTSUNNY   77  65  66 S9        30.18F
RANTOUL*       SUNNY     81  65  58 S12       30.17F HX  83
MATTOON        CLOUDY    78  64  61 S9        30.18S HX  80
PARIS*         CLOUDY    78  65  62 S6        30.20S HX  80
$$

ILZ079-100>102-232200-
SOUTHWEST ILLINOIS

CITY           SKY/WX    TMP DP  RH WIND       PRES   REMARKS
ALTON          CLOUDY    73  68  83 S9        30.16S
BELLEVILLE     CLOUDY    76  67  74 SE5       30.15R
CAHOKIA*       CLOUDY    77  68  73 SE12      30.14F
SPARTA*        CLOUDY    76  69  79 SE8       30.17R
$$

ILZ064>066-069>071-074>076-080>082-084>086-088>090-092>094-232200-
SOUTH-CENTRAL ILLINOIS

CITY           SKY/WX    TMP DP  RH WIND       PRES   REMARKS
CARBONDALE     CLOUDY    77  68  73 SE7       30.16F
EFFINGHAM*     CLOUDY    78  66  66 SE6       30.19F HX  80
MT. VERNON     CLOUDY    79  64  61 SE8       30.18F HX  81
CENTRALIA*     CLOUDY    76  70  80 SE3       30.16F
SALEM*         CLOUDY    78  65  65 S5        30.17F HX  80
$$

ILZ067-068-072-073-078-083-087-091-232200-
SOUTHEAST ILLINOIS

CITY           SKY/WX    TMP DP  RH WIND       PRES   REMARKS
LAWRENCEVILLE  PTSUNNY   81  62  52 S6        30.19F HX  82
FLORA*         CLOUDY    80  65  61 S10       30.18F HX  82
FAIRFIELD*     CLOUDY    78  66  67 CALM      30.17F HX  80
HARRISBURG*    CLOUDY    77  69  76 SE5       30.18F
ROBINSON*      MOSUNNY   79  65  61 S6        30.20S HX  81
CARMI*         CLOUDY    78  67  68 SE5       30.18F HX  80
$$

ABBREVIATIONS USED IN REMARKS
   TC - TEMPERATURE IN CELSIUS
  WCI - WIND CHILL INDEX
   HX - HEAT INDEX
  VSB - VISIBILITY
$$




USA.gov is the U.S. government's official web portal to all federal, state and local government web resources and services.